CZ-6A DEB

Satellite information

Favourite Embed

Satellite Type and Status

DEBRISIN ORBIT

Key statistics

Satellite CZ-6A DEB at a glance.

Uptime

1078

Days in orbit

Revolutions

≈ 14.6

Per day

Orbit

SSO

Sun Synchronous Orbit

Inclination

98.5

Latest

Satellite identification and parameters

Extended collection of information and parameters for CZ-6A DEB.

Object identification

Identified? True

Debris? True

Object name: CZ-6A DEB

International designator: 2022-151AAL

Object number (NORAD): 55888

Object ID (CCSDS): 55888

Country: PEOPLES REPUBLIC OF CHINA (PRC)

Current information (Y/N): Y

RCS size: SMALL

Orbital parameters

Period: 98.887 minutes

Inclination: 98.4704 deg

SMA: 7083.573 km

Apoapsis: 801.168 km

Periapsis: 609.708 km

RAAN: 314.737 deg

Eccentricy: 0.01351438

Argument of periapsis: 311.0185 deg

Mean anomaly: 47.9391 deg

Mean motion: 14.56210685 rev/day

Mean motion (dot): 0.00010144 rev/day2

B* drag term: 0.0020360484 1/REarth

Two-line elements (TLE)

Creation date: Oct. 23, 2025, 2:46 a.m.

Reference frame: TEME

Reference center: EARTH

Epoch: Oct. 22, 2025, 12:03 p.m. UTC

TLE line 0: 0 CZ-6A DEB

TLE line 1: 1 55888U 22151AAL 25295.50267884 .00010144 00000-0 20360-2 0 9991

TLE line 2: 2 55888 98.4704 314.7370 0135144 311.0185 47.9391 14.56210685149847

Live tracking on map

Real-time ground track for satellite CZ-6A DEB.

In-orbit conjunctions

A list of the most updated potential collisions computed for object CZ-6A DEB.

Target Orbit TCA Probability of collision Miss distance Type
METEOR 1-17 DEB LEO 2024-11-10 21:34:28 0.0001872528 416.0 (m) DEBRIS
ELECTRON KICK STAGE R/B LEO 2024-07-09 06:28:03 0.0001147316 246.0 (m) ROCKET BODY

Associated space launch

Chinese satellite reported for atmospheric/ocean/environmental/spatial parameter research purposes, details TBD.

CZ-6A DEB was lifted into orbit during the mission ‘Long March 6A | Yunhai 3’, on board a Long March 6A space rocket.

The launch took place on Nov. 11, 2022, 10:52 p.m. from Launch Complex 9A.

For more information about the launch, click the button.

Launch to space Long March 6A | Yunhai 3
Long March 6A | Yunhai 3

Agency: N/A

Status: Launch Successful

Launch date: Nov. 11, 2022, 10:52 p.m. UTC

Rocket: Long March 6A

Launch pad: Launch Complex 9A

Location: Taiyuan Satellite Launch Center, People's Republic of China

...

Latest news about this satellite

There are no fresh news available about this satellite. Check back as we update our databases every day.


Newsletter sign-up

Weekly statistics, charts and insights to help you stay on top of the space industry.